Time,TemperatureF,DewpointF,PressureIn,WindDirection,WindDirectionDegrees,WindSpeedMPH,WindSpeedGustMPH,Humidity,HourlyPrecipIn,Conditions,Clouds,dailyrainin,SoftwareType,DateUTC
2013-01-30 01:57:00,32.7,31.4,30.09,South,182,1.0,2.0,95,0.00,,,0.00,Wunderground v.1.15,2013-01-30 06:57:00,
2013-01-30 02:00:00,32.7,31.4,30.09,South,182,1.0,1.0,95,0.00,,,0.00,Wunderground v.1.15,2013-01-30 07:00:00,
2013-01-30 02:05:00,32.8,31.8,30.08,South,182,0.0,1.0,96,0.00,,,0.00,Wunderground v.1.15,2013-01-30 07:05:00,
2013-01-30 02:15:00,32.8,31.8,30.08,South,182,0.0,0.0,96,0.00,,,0.00,Wunderground v.1.15,2013-01-30 07:15:00,
2013-01-30 02:20:00,32.9,31.9,30.08,South,182,0.0,0.0,96,0.00,,,0.00,Wunderground v.1.15,2013-01-30 07:20:00,
2013-01-30 02:30:00,32.9,31.9,30.08,South,182,0.0,1.0,96,0.00,,,0.00,Wunderground v.1.15,2013-01-30 07:30:00,
2013-01-30 02:40:00,33.0,32.0,30.07,South,182,0.0,1.0,96,0.00,,,0.00,Wunderground v.1.15,2013-01-30 07:40:00,
2013-01-30 02:45:00,33.0,32.0,30.06,South,182,0.0,1.0,96,0.00,,,0.00,Wunderground v.1.15,2013-01-30 07:45:00,
2013-01-30 02:50:00,33.0,32.0,30.06,South,182,1.0,1.0,96,0.00,,,0.00,Wunderground v.1.15,2013-01-30 07:50:00,
2013-01-30 03:00:00,33.0,32.0,30.05,South,185,1.0,1.0,96,0.00,,,0.00,Wunderground v.1.15,2013-01-30 08:00:00,
2013-01-30 03:05:00,33.0,32.0,30.05,South,185,1.0,1.0,96,0.00,,,0.00,Wunderground v.1.15,2013-01-30 08:05:00,
2013-01-30 03:15:00,33.1,32.1,30.05,South,185,0.0,0.0,96,0.00,,,0.00,Wunderground v.1.15,2013-01-30 08:15:00,
2013-01-30 03:20:00,33.1,32.1,30.04,South,185,0.0,1.0,96,0.00,,,0.00,Wunderground v.1.15,2013-01-30 08:20:00,
2013-01-30 03:30:00,33.1,32.1,30.04,South,185,0.0,0.0,96,0.00,,,0.00,Wunderground v.1.15,2013-01-30 08:30:00,
2013-01-30 03:35:00,33.2,32.2,30.04,South,185,0.0,0.0,96,0.00,,,0.00,Wunderground v.1.15,2013-01-30 08:35:00,
2013-01-30 03:40:00,33.2,32.2,30.03,South,185,0.0,0.0,96,0.00,,,0.00,Wunderground v.1.15,2013-01-30 08:40:00,
2013-01-30 03:50:00,33.2,32.2,30.03,SSE,154,1.0,1.0,96,0.00,,,0.00,Wunderground v.1.15,2013-01-30 08:50:00,
2013-01-30 03:55:00,33.2,32.2,30.03,SSE,153,1.0,1.0,96,0.00,,,0.00,Wunderground v.1.15,2013-01-30 08:55:00,
2013-01-30 04:05:00,33.2,32.2,30.02,South,178,1.0,1.0,96,0.00,,,0.00,Wunderground v.1.15,2013-01-30 09:05:00,
2013-01-30 04:15:00,33.2,32.2,30.02,South,178,0.0,0.0,96,0.00,,,0.00,Wunderground v.1.15,2013-01-30 09:15:00,
2013-01-30 04:20:00,33.2,32.2,30.02,South,178,0.0,0.0,96,0.00,,,0.00,Wunderground v.1.15,2013-01-30 09:20:00,
2013-01-30 04:25:00,33.2,32.2,30.02,South,178,0.0,1.0,96,0.00,,,0.00,Wunderground v.1.15,2013-01-30 09:25:00,
2013-01-30 04:35:00,33.2,32.2,30.01,South,178,0.0,2.0,96,0.00,,,0.00,Wunderground v.1.15,2013-01-30 09:35:00,
2013-01-30 04:40:00,33.2,32.2,30.00,South,178,1.0,1.0,96,0.00,,,0.00,Wunderground v.1.15,2013-01-30 09:40:00,
2013-01-30 04:50:00,33.2,32.2,30.01,South,178,0.0,0.0,96,0.00,,,0.00,Wunderground v.1.15,2013-01-30 09:50:00,
2013-01-30 04:55:00,33.2,32.2,30.00,South,178,0.0,1.0,96,0.00,,,0.00,Wunderground v.1.15,2013-01-30 09:55:00,
2013-01-30 05:00:00,33.2,32.2,30.00,South,169,0.0,0.0,96,0.00,,,0.00,Wunderground v.1.15,2013-01-30 10:00:00,
2013-01-30 05:05:00,33.1,32.1,30.00,South,169,1.0,2.0,96,0.00,,,0.00,Wunderground v.1.15,2013-01-30 10:05:00,
2013-01-30 05:15:00,33.1,32.1,30.00,South,169,1.0,1.0,96,0.00,,,0.00,Wunderground v.1.15,2013-01-30 10:15:00,
2013-01-30 05:20:00,33.1,32.1,29.99,South,169,0.0,0.0,96,0.00,,,0.00,Wunderground v.1.15,2013-01-30 10:20:00,
2013-01-30 05:25:00,33.1,32.1,29.99,South,169,0.0,0.0,96,0.00,,,0.00,Wunderground v.1.15,2013-01-30 10:25:00,
2013-01-30 05:30:00,33.0,32.0,29.99,South,169,0.0,0.0,96,0.00,,,0.00,Wunderground v.1.15,2013-01-30 10:30:00,
2013-01-30 05:40:00,33.0,32.0,29.99,South,169,0.0,1.0,96,0.00,,,0.00,Wunderground v.1.15,2013-01-30 10:40:00,
2013-01-30 05:45:00,33.0,32.0,29.99,South,169,0.0,1.0,96,0.00,,,0.00,Wunderground v.1.15,2013-01-30 10:45:00,
2013-01-30 05:55:00,33.0,32.2,29.98,South,169,0.0,1.0,97,0.00,,,0.00,Wunderground v.1.15,2013-01-30 10:55:00,
2013-01-30 06:00:00,33.0,32.2,29.98,South,169,0.0,1.0,97,0.00,,,0.00,Wunderground v.1.15,2013-01-30 11:00:00,
2013-01-30 06:10:00,33.0,32.2,29.98,South,169,0.0,0.0,97,0.00,,,0.00,Wunderground v.1.15,2013-01-30 11:10:00,
2013-01-30 06:15:00,33.0,32.2,29.97,South,169,0.0,0.0,97,0.00,,,0.00,Wunderground v.1.15,2013-01-30 11:15:00,
2013-01-30 06:25:00,33.0,32.0,29.96,South,169,0.0,0.0,96,0.00,,,0.00,Wunderground v.1.15,2013-01-30 11:25:00,
2013-01-30 06:30:00,33.0,32.0,29.97,South,169,0.0,0.0,96,0.00,,,0.00,Wunderground v.1.15,2013-01-30 11:30:00,
2013-01-30 06:40:00,33.0,32.2,29.96,South,169,0.0,0.0,97,0.00,,,0.00,Wunderground v.1.15,2013-01-30 11:40:00,
2013-01-30 06:45:00,33.0,32.2,29.96,South,169,0.0,0.0,97,0.00,,,0.00,Wunderground v.1.15,2013-01-30 11:45:00,
2013-01-30 06:50:00,33.1,32.3,29.95,South,169,0.0,0.0,97,0.00,,,0.00,Wunderground v.1.15,2013-01-30 11:50:00,
2013-01-30 07:00:00,33.1,32.3,29.95,South,169,0.0,0.0,97,0.00,,,0.00,Wunderground v.1.15,2013-01-30 12:00:00,
2013-01-30 07:05:00,33.1,32.3,29.94,South,169,0.0,0.0,97,0.00,,,0.00,Wunderground v.1.15,2013-01-30 12:05:00,
2013-01-30 07:15:00,33.2,32.4,29.93,South,169,0.0,0.0,97,0.00,,,0.00,Wunderground v.1.15,2013-01-30 12:15:00,
2013-01-30 07:20:00,33.1,32.3,29.93,South,169,0.0,0.0,97,0.00,,,0.00,Wunderground v.1.15,2013-01-30 12:20:00,
2013-01-30 07:30:00,33.2,32.4,29.94,South,169,0.0,0.0,97,0.00,,,0.00,Wunderground v.1.15,2013-01-30 12:30:00,
2013-01-30 07:35:00,33.2,32.4,29.93,South,169,0.0,0.0,97,0.00,,,0.00,Wunderground v.1.15,2013-01-30 12:35:00,
2013-01-30 07:40:00,33.2,32.4,29.93,South,169,0.0,0.0,97,0.00,,,0.00,Wunderground v.1.15,2013-01-30 12:40:00,
2013-01-30 07:50:00,33.3,32.5,29.93,South,169,0.0,0.0,97,0.00,,,0.00,Wunderground v.1.15,2013-01-30 12:50:00,
2013-01-30 07:55:00,33.3,32.5,29.92,South,169,0.0,0.0,97,0.00,,,0.00,Wunderground v.1.15,2013-01-30 12:55:00,
2013-01-30 08:05:00,33.3,32.5,29.92,South,169,0.0,0.0,97,0.00,,,0.00,Wunderground v.1.15,2013-01-30 13:05:00,
2013-01-30 08:15:00,33.4,32.6,29.92,South,169,0.0,0.0,97,0.00,,,0.00,Wunderground v.1.15,2013-01-30 13:15:00,
2013-01-30 08:20:00,33.4,32.6,29.91,South,169,0.0,0.0,97,0.00,,,0.00,Wunderground v.1.15,2013-01-30 13:20:00,
2013-01-30 08:25:00,33.4,32.6,29.91,South,169,0.0,0.0,97,0.00,,,0.00,Wunderground v.1.15,2013-01-30 13:25:00,
2013-01-30 08:35:00,33.4,32.6,29.91,South,169,0.0,0.0,97,0.00,,,0.00,Wunderground v.1.15,2013-01-30 13:35:00,
2013-01-30 08:40:00,33.4,32.6,29.90,South,169,0.0,0.0,97,0.00,,,0.00,Wunderground v.1.15,2013-01-30 13:40:00,
2013-01-30 08:45:00,33.4,32.6,29.89,South,169,0.0,0.0,97,0.00,,,0.00,Wunderground v.1.15,2013-01-30 13:45:00,
2013-01-30 08:55:00,33.5,32.7,29.89,South,169,0.0,0.0,97,0.00,,,0.00,Wunderground v.1.15,2013-01-30 13:55:00,
2013-01-30 09:00:00,33.5,32.7,29.88,South,169,0.0,0.0,97,0.00,,,0.00,Wunderground v.1.15,2013-01-30 14:00:00,
2013-01-30 09:05:00,33.5,32.7,29.88,South,169,0.0,0.0,97,0.00,,,0.00,Wunderground v.1.15,2013-01-30 14:05:00,
2013-01-30 09:15:00,33.5,32.7,29.87,South,169,0.0,0.0,97,0.00,,,0.00,Wunderground v.1.15,2013-01-30 14:15:00,
2013-01-30 09:25:00,33.4,32.6,29.86,South,169,0.0,0.0,97,0.00,,,0.01,Wunderground v.1.15,2013-01-30 14:25:00,
2013-01-30 09:30:00,33.4,32.6,29.86,South,169,0.0,0.0,97,0.00,,,0.01,Wunderground v.1.15,2013-01-30 14:30:00,
2013-01-30 09:40:00,33.4,32.6,29.85,South,169,0.0,0.0,97,0.00,,,0.01,Wunderground v.1.15,2013-01-30 14:40:00,
2013-01-30 09:45:00,33.4,32.6,29.85,South,169,0.0,0.0,97,0.00,,,0.01,Wunderground v.1.15,2013-01-30 14:45:00,
2013-01-30 09:50:00,33.5,32.7,29.85,South,169,0.0,0.0,97,0.00,,,0.02,Wunderground v.1.15,2013-01-30 14:50:00,
2013-01-30 10:00:00,33.5,32.7,29.84,South,169,0.0,0.0,97,0.00,,,0.02,Wunderground v.1.15,2013-01-30 15:00:00,
2013-01-30 10:05:00,33.6,32.8,29.84,South,169,0.0,0.0,97,0.04,,,0.03,Wunderground v.1.15,2013-01-30 15:05:00,
2013-01-30 10:15:00,33.7,32.9,29.83,South,169,0.0,0.0,97,0.05,,,0.04,Wunderground v.1.15,2013-01-30 15:15:00,
2013-01-30 10:20:00,33.8,33.0,29.82,South,169,0.0,0.0,97,0.12,,,0.05,Wunderground v.1.15,2013-01-30 15:20:00,
2013-01-30 10:30:00,33.7,32.9,29.82,South,169,0.0,0.0,97,0.14,,,0.07,Wunderground v.1.15,2013-01-30 15:30:00,
2013-01-30 10:35:00,33.7,32.9,29.82,South,169,0.0,0.0,97,0.18,,,0.09,Wunderground v.1.15,2013-01-30 15:35:00,
2013-01-30 10:45:00,33.7,32.9,29.81,South,169,0.0,0.0,97,0.16,,,0.12,Wunderground v.1.15,2013-01-30 15:45:00,
2013-01-30 10:50:00,33.7,32.9,29.81,South,169,0.0,0.0,97,0.21,,,0.14,Wunderground v.1.15,2013-01-30 15:50:00,
2013-01-30 11:00:00,33.8,33.0,29.80,South,169,0.0,0.0,97,0.30,,,0.19,Wunderground v.1.15,2013-01-30 16:00:00,
2013-01-30 11:05:00,33.8,33.0,29.79,South,169,0.0,0.0,97,0.22,,,0.21,Wunderground v.1.15,2013-01-30 16:05:00,
2013-01-30 11:15:00,33.9,33.1,29.78,South,169,0.0,0.0,97,0.14,,,0.23,Wunderground v.1.15,2013-01-30 16:15:00,
2013-01-30 11:20:00,33.9,33.1,29.78,South,169,0.0,0.0,97,0.08,,,0.23,Wunderground v.1.15,2013-01-30 16:20:00,
2013-01-30 11:30:00,33.9,33.1,29.77,South,169,0.0,0.0,97,0.06,,,0.24,Wunderground v.1.15,2013-01-30 16:30:00,
2013-01-30 11:35:00,34.0,33.2,29.77,South,169,0.0,0.0,97,0.04,,,0.25,Wunderground v.1.15,2013-01-30 16:35:00,
2013-01-30 11:45:00,34.2,33.4,29.76,South,169,0.0,0.0,97,0.04,,,0.25,Wunderground v.1.15,2013-01-30 16:45:00,
2013-01-30 11:50:00,34.3,33.5,29.76,South,169,0.0,0.0,97,0.04,,,0.25,Wunderground v.1.15,2013-01-30 16:50:00,
2013-01-30 12:00:00,34.2,33.4,29.75,South,169,0.0,0.0,97,0.00,,,0.25,Wunderground v.1.15,2013-01-30 17:00:00,
2013-01-30 12:05:00,34.2,33.4,29.75,South,169,0.0,0.0,97,0.00,,,0.25,Wunderground v.1.15,2013-01-30 17:05:00,
2013-01-30 12:15:00,34.2,33.4,29.73,South,169,0.0,0.0,97,0.00,,,0.26,Wunderground v.1.15,2013-01-30 17:15:00,
2013-01-30 12:25:00,34.4,33.6,29.72,South,169,0.0,0.0,97,0.00,,,0.26,Wunderground v.1.15,2013-01-30 17:25:00,
2013-01-30 12:30:00,34.4,33.6,29.72,South,169,0.0,0.0,97,0.00,,,0.26,Wunderground v.1.15,2013-01-30 17:30:00,
2013-01-30 12:40:00,34.4,33.6,29.70,South,169,0.0,0.0,97,0.00,,,0.26,Wunderground v.1.15,2013-01-30 17:40:00,
2013-01-30 12:45:00,34.4,33.6,29.70,South,181,0.0,0.0,97,0.00,,,0.26,Wunderground v.1.15,2013-01-30 17:45:00,
2013-01-30 12:55:00,34.4,33.6,29.69,South,181,0.0,0.0,97,0.00,,,0.27,Wunderground v.1.15,2013-01-30 17:55:00,
2013-01-30 13:00:00,34.5,33.7,29.68,South,180,0.0,0.0,97,0.00,,,0.27,Wunderground v.1.15,2013-01-30 18:00:00,
2013-01-30 13:05:00,34.5,33.7,29.68,South,180,0.0,0.0,97,0.00,,,0.27,Wunderground v.1.15,2013-01-30 18:05:00,
2013-01-30 13:15:00,34.7,33.9,29.68,SSE,162,0.0,0.0,97,0.00,,,0.27,Wunderground v.1.15,2013-01-30 18:15:00,
2013-01-30 13:20:00,34.8,34.0,29.67,SSE,162,0.0,0.0,97,0.00,,,0.27,Wunderground v.1.15,2013-01-30 18:20:00,
2013-01-30 13:30:00,34.9,34.1,29.66,SSE,163,0.0,0.0,97,0.00,,,0.27,Wunderground v.1.15,2013-01-30 18:30:00,
2013-01-30 13:35:00,35.0,34.2,29.65,SSE,163,0.0,0.0,97,0.00,,,0.27,Wunderground v.1.15,2013-01-30 18:35:00,
2013-01-30 13:45:00,35.2,34.4,29.65,SSE,163,0.0,0.0,97,0.00,,,0.27,Wunderground v.1.15,2013-01-30 18:45:00,
2013-01-30 13:50:00,35.1,34.3,29.65,SSE,163,0.0,0.0,97,0.00,,,0.27,Wunderground v.1.15,2013-01-30 18:50:00,
2013-01-30 14:00:00,35.1,34.3,29.64,SSE,163,0.0,0.0,97,0.00,,,0.28,Wunderground v.1.15,2013-01-30 19:00:00,
2013-01-30 14:05:00,35.1,34.3,29.63,SSE,163,0.0,0.0,97,0.00,,,0.28,Wunderground v.1.15,2013-01-30 19:05:00,
2013-01-30 14:15:00,35.0,34.2,29.63,SSE,165,1.0,2.0,97,0.00,,,0.28,Wunderground v.1.15,2013-01-30 19:15:00,
2013-01-30 14:20:00,34.9,34.1,29.63,SSE,165,0.0,0.0,97,0.00,,,0.28,Wunderground v.1.15,2013-01-30 19:20:00,
2013-01-30 14:30:00,34.8,34.0,29.63,East,84,0.0,0.0,97,0.00,,,0.28,Wunderground v.1.15,2013-01-30 19:30:00,
2013-01-30 14:35:00,34.8,34.0,29.62,East,84,0.0,0.0,97,0.00,,,0.28,Wunderground v.1.15,2013-01-30 19:35:00,
2013-01-30 14:45:00,34.9,34.1,29.62,East,84,0.0,0.0,97,0.00,,,0.28,Wunderground v.1.15,2013-01-30 19:45:00,
2013-01-30 14:50:00,34.9,34.1,29.61,East,84,0.0,0.0,97,0.00,,,0.28,Wunderground v.1.15,2013-01-30 19:50:00,
2013-01-30 15:00:00,35.0,34.2,29.61,East,83,0.0,0.0,97,0.00,,,0.28,Wunderground v.1.15,2013-01-30 20:00:00,
2013-01-30 15:05:00,35.0,34.2,29.61,East,83,0.0,0.0,97,0.00,,,0.28,Wunderground v.1.15,2013-01-30 20:05:00,
2013-01-30 15:15:00,34.8,34.0,29.60,East,83,0.0,0.0,97,0.00,,,0.28,Wunderground v.1.15,2013-01-30 20:15:00,
2013-01-30 15:20:00,34.8,34.0,29.60,East,84,0.0,0.0,97,0.00,,,0.28,Wunderground v.1.15,2013-01-30 20:20:00,
2013-01-30 15:25:00,34.8,34.0,29.60,East,84,0.0,0.0,97,0.00,,,0.29,Wunderground v.1.15,2013-01-30 20:25:00,
2013-01-30 15:35:00,34.5,33.7,29.60,East,84,0.0,0.0,97,0.20,,,0.31,Wunderground v.1.15,2013-01-30 20:35:00,
2013-01-30 15:40:00,34.4,33.6,29.60,East,83,0.0,0.0,97,0.11,,,0.32,Wunderground v.1.15,2013-01-30 20:40:00,
2013-01-30 15:45:00,34.4,33.6,29.59,East,84,0.0,0.0,97,0.08,,,0.32,Wunderground v.1.15,2013-01-30 20:45:00,
2013-01-30 15:55:00,34.4,33.6,29.59,East,84,0.0,0.0,97,0.00,,,0.32,Wunderground v.1.15,2013-01-30 20:55:00,
2013-01-30 16:00:00,34.4,33.6,29.59,East,84,0.0,0.0,97,0.00,,,0.33,Wunderground v.1.15,2013-01-30 21:00:00,
2013-01-30 16:05:00,34.4,33.6,29.59,East,84,0.0,0.0,97,0.00,,,0.33,Wunderground v.1.15,2013-01-30 21:05:00,
2013-01-30 16:15:00,34.4,33.6,29.58,East,84,0.0,0.0,97,0.00,,,0.33,Wunderground v.1.15,2013-01-30 21:15:00,
2013-01-30 16:20:00,34.5,33.7,29.58,East,84,0.0,0.0,97,0.00,,,0.33,Wunderground v.1.15,2013-01-30 21:20:00,
2013-01-30 16:25:00,34.6,33.8,29.59,East,83,0.0,0.0,97,0.00,,,0.33,Wunderground v.1.15,2013-01-30 21:25:00,
2013-01-30 16:30:00,34.6,33.8,29.58,East,83,0.0,0.0,97,0.00,,,0.33,Wunderground v.1.15,2013-01-30 21:30:00,
2013-01-30 16:40:00,34.7,34.2,29.59,East,84,0.0,0.0,98,0.00,,,0.33,Wunderground v.1.15,2013-01-30 21:40:00,
2013-01-30 16:45:00,34.7,33.9,29.59,East,84,0.0,0.0,97,0.00,,,0.33,Wunderground v.1.15,2013-01-30 21:45:00,
2013-01-30 16:55:00,34.6,33.8,29.58,East,84,0.0,0.0,97,0.00,,,0.33,Wunderground v.1.15,2013-01-30 21:55:00,
2013-01-30 17:00:00,34.6,33.8,29.58,East,83,0.0,0.0,97,0.00,,,0.33,Wunderground v.1.15,2013-01-30 22:00:00,
2013-01-30 17:05:00,34.5,33.7,29.58,East,83,0.0,0.0,97,0.00,,,0.33,Wunderground v.1.15,2013-01-30 22:05:00,
2013-01-30 17:15:00,34.4,33.6,29.58,East,84,0.0,0.0,97,0.00,,,0.33,Wunderground v.1.15,2013-01-30 22:15:00,
2013-01-30 17:20:00,34.4,33.6,29.58,East,84,0.0,0.0,97,0.00,,,0.33,Wunderground v.1.15,2013-01-30 22:20:00,
2013-01-30 17:30:00,34.4,33.6,29.57,East,84,0.0,0.0,97,0.00,,,0.33,Wunderground v.1.15,2013-01-30 22:30:00,
2013-01-30 17:35:00,34.4,33.6,29.57,East,84,0.0,0.0,97,0.00,,,0.33,Wunderground v.1.15,2013-01-30 22:35:00,
2013-01-30 17:40:00,34.5,33.7,29.57,East,83,0.0,0.0,97,0.00,,,0.33,Wunderground v.1.15,2013-01-30 22:40:00,
2013-01-30 17:50:00,34.6,34.1,29.56,East,84,0.0,0.0,98,0.00,,,0.34,Wunderground v.1.15,2013-01-30 22:50:00,
2013-01-30 17:55:00,34.7,34.2,29.56,East,84,0.0,0.0,98,0.00,,,0.34,Wunderground v.1.15,2013-01-30 22:55:00,
2013-01-30 18:05:00,34.7,34.2,29.56,East,84,0.0,0.0,98,0.00,,,0.34,Wunderground v.1.15,2013-01-30 23:05:00,
2013-01-30 18:15:00,34.8,34.3,29.55,East,84,0.0,0.0,98,0.00,,,0.34,Wunderground v.1.15,2013-01-30 23:15:00,
2013-01-30 18:20:00,34.8,34.3,29.55,East,84,0.0,0.0,98,0.00,,,0.34,Wunderground v.1.15,2013-01-30 23:20:00,
2013-01-30 18:25:00,34.8,34.3,29.55,East,84,0.0,0.0,98,0.00,,,0.34,Wunderground v.1.15,2013-01-30 23:25:00,
2013-01-30 18:35:00,35.0,34.5,29.55,East,84,0.0,0.0,98,0.00,,,0.34,Wunderground v.1.15,2013-01-30 23:35:00,
2013-01-30 18:40:00,35.0,34.5,29.55,East,84,0.0,0.0,98,0.00,,,0.34,Wunderground v.1.15,2013-01-30 23:40:00,
2013-01-30 18:50:00,34.9,34.4,29.54,East,84,0.0,0.0,98,0.00,,,0.34,Wunderground v.1.15,2013-01-30 23:50:00,
2013-01-30 18:55:00,34.9,34.4,29.54,East,83,0.0,0.0,98,0.00,,,0.34,Wunderground v.1.15,2013-01-30 23:55:00,
2013-01-30 19:00:00,34.9,34.4,29.54,East,84,0.0,0.0,98,0.00,,,0.34,Wunderground v.1.15,2013-01-31 00:00:00,
2013-01-30 19:05:00,34.9,34.4,29.53,East,83,0.0,0.0,98,0.00,,,0.34,Wunderground v.1.15,2013-01-31 00:05:00,
2013-01-30 19:15:00,34.9,34.4,29.54,East,83,0.0,0.0,98,0.00,,,0.34,Wunderground v.1.15,2013-01-31 00:15:00,
2013-01-30 19:25:00,35.0,34.5,29.53,East,84,0.0,0.0,98,0.00,,,0.34,Wunderground v.1.15,2013-01-31 00:25:00,
2013-01-30 19:30:00,35.0,34.5,29.54,East,84,0.0,0.0,98,0.00,,,0.35,Wunderground v.1.15,2013-01-31 00:30:00,
2013-01-30 19:40:00,35.0,34.5,29.53,East,83,0.0,0.0,98,0.00,,,0.35,Wunderground v.1.15,2013-01-31 00:40:00,
2013-01-30 19:45:00,35.2,34.7,29.52,East,83,0.0,0.0,98,0.00,,,0.35,Wunderground v.1.15,2013-01-31 00:45:00,
2013-01-30 19:50:00,35.4,34.9,29.53,East,83,0.0,0.0,98,0.00,,,0.35,Wunderground v.1.15,2013-01-31 00:50:00,
2013-01-30 20:00:00,35.3,34.8,29.51,SSW,212,0.0,0.0,98,0.00,,,0.35,Wunderground v.1.15,2013-01-31 01:00:00,
2013-01-30 20:05:00,35.3,34.8,29.51,SW,226,0.0,0.0,98,0.00,,,0.35,Wunderground v.1.15,2013-01-31 01:05:00,
2013-01-30 20:15:00,35.3,34.8,29.50,SW,226,0.0,0.0,98,0.00,,,0.35,Wunderground v.1.15,2013-01-31 01:15:00,
2013-01-30 20:20:00,35.3,34.8,29.50,SW,226,0.0,0.0,98,0.00,,,0.35,Wunderground v.1.15,2013-01-31 01:20:00,
2013-01-30 20:30:00,35.4,34.9,29.50,SW,226,0.0,0.0,98,0.00,,,0.35,Wunderground v.1.15,2013-01-31 01:30:00,
2013-01-30 20:35:00,35.5,35.0,29.50,SW,226,0.0,0.0,98,0.00,,,0.35,Wunderground v.1.15,2013-01-31 01:35:00,
2013-01-30 20:45:00,35.3,34.8,29.49,SW,227,0.0,1.0,98,0.00,,,0.35,Wunderground v.1.15,2013-01-31 01:45:00,
2013-01-30 20:50:00,35.5,35.0,29.49,SW,227,0.0,0.0,98,0.00,,,0.35,Wunderground v.1.15,2013-01-31 01:50:00,
2013-01-30 20:55:00,35.3,34.8,29.50,SW,227,0.0,0.0,98,0.00,,,0.35,Wunderground v.1.15,2013-01-31 01:55:00,
2013-01-30 21:05:00,35.4,34.9,29.50,SW,227,0.0,2.0,98,0.00,,,0.35,Wunderground v.1.15,2013-01-31 02:05:00,
2013-01-30 21:15:00,35.6,35.1,29.49,SW,227,0.0,0.0,98,0.00,,,0.35,Wunderground v.1.15,2013-01-31 02:15:00,
2013-01-30 21:20:00,35.5,35.0,29.48,SW,227,0.0,0.0,98,0.00,,,0.35,Wunderground v.1.15,2013-01-31 02:20:00,
2013-01-30 21:25:00,35.6,35.1,29.47,SW,227,0.0,0.0,98,0.00,,,0.35,Wunderground v.1.15,2013-01-31 02:25:00,
2013-01-30 21:35:00,35.6,35.1,29.47,NE,46,0.0,0.0,98,0.00,,,0.35,Wunderground v.1.15,2013-01-31 02:35:00,
2013-01-30 21:40:00,35.6,35.1,29.48,NE,46,0.0,0.0,98,0.00,,,0.35,Wunderground v.1.15,2013-01-31 02:40:00,
2013-01-30 21:45:00,35.7,35.2,29.48,NE,46,0.0,0.0,98,0.00,,,0.35,Wunderground v.1.15,2013-01-31 02:45:00,
2013-01-30 21:55:00,35.9,35.4,29.48,NE,46,0.0,0.0,98,0.00,,,0.35,Wunderground v.1.15,2013-01-31 02:55:00,
2013-01-30 22:00:00,36.0,35.5,29.48,NE,46,0.0,0.0,98,0.00,,,0.35,Wunderground v.1.15,2013-01-31 03:00:00,
2013-01-30 22:05:00,36.0,35.5,29.49,NE,46,0.0,0.0,98,0.00,,,0.35,Wunderground v.1.15,2013-01-31 03:05:00,
2013-01-30 22:15:00,36.0,35.5,29.46,NE,41,0.0,0.0,98,0.00,,,0.35,Wunderground v.1.15,2013-01-31 03:15:00,
2013-01-30 22:25:00,36.1,35.6,29.45,NE,44,0.0,1.0,98,0.00,,,0.35,Wunderground v.1.15,2013-01-31 03:25:00,
2013-01-30 22:30:00,36.2,35.7,29.45,NE,44,0.0,0.0,98,0.00,,,0.35,Wunderground v.1.15,2013-01-31 03:30:00,
2013-01-30 22:40:00,36.2,35.7,29.45,NE,44,0.0,1.0,98,0.00,,,0.35,Wunderground v.1.15,2013-01-31 03:40:00,
2013-01-30 22:45:00,36.3,35.8,29.45,NE,44,0.0,1.0,98,0.00,,,0.35,Wunderground v.1.15,2013-01-31 03:45:00,
2013-01-30 22:50:00,36.5,36.0,29.44,South,184,0.0,2.0,98,0.00,,,0.35,Wunderground v.1.15,2013-01-31 03:50:00,
2013-01-30 23:00:00,36.3,35.8,29.44,South,185,0.0,0.0,98,0.00,,,0.35,Wunderground v.1.15,2013-01-31 04:00:00,
2013-01-30 23:05:00,36.6,36.1,29.44,South,185,0.0,0.0,98,0.00,,,0.35,Wunderground v.1.15,2013-01-31 04:05:00,
2013-01-30 23:15:00,37.0,36.5,29.44,South,185,0.0,0.0,98,0.00,,,0.36,Wunderground v.1.15,2013-01-31 04:15:00,
2013-01-30 23:25:00,37.0,36.5,29.43,South,186,0.0,1.0,98,0.00,,,0.36,Wunderground v.1.15,2013-01-31 04:25:00,
2013-01-30 23:30:00,36.9,36.4,29.42,South,186,0.0,0.0,98,0.00,,,0.36,Wunderground v.1.15,2013-01-31 04:30:00,
2013-01-30 23:35:00,36.7,36.2,29.41,South,186,1.0,1.0,98,0.00,,,0.36,Wunderground v.1.15,2013-01-31 04:35:00,
2013-01-30 23:45:00,36.8,36.3,29.41,South,186,0.0,1.0,98,0.00,,,0.37,Wunderground v.1.15,2013-01-31 04:45:00,
2013-01-30 23:50:00,36.7,36.2,29.40,South,186,0.0,1.0,98,0.00,,,0.37,Wunderground v.1.15,2013-01-31 04:50:00,